Wind_Speed
10 3 8 12 10 12 18 22 28 30 38 38 40 37 15 33 17 25 9 18 25 27 29 31 32 21 41 37 40 39 40 42 44 45 48 50 46 48 51 50 49 52 52 51
13 5 5 5 7 8 16 18 25 29 28 35 32 34 41 51 44 48 11 21 24 27 30 33 36 36 42 42 42 42 42 43 46 49 49 49 49 48 50 51 51 52 52 49
16 16 11 9 12 12 23 24 24 26 25 25 30 37 44 45 33 28 29 33 35 35 36 37 41 43 45 46 46 48 49 54 55 52 49 47 48 48 49 51 52 52 52 50
11 17 19 3 16 18 19 24 28 25 18 17 30 32 38 31 38 23 41 37 40 42 45 46 46 48 49 51 50 53 54 54 50 47 47 49 50 48 45 43 47 49 48 48
17 18 22 23 18 20 25 26 24 24 26 22 15 24 36 40 37 29 40 41 42 45 47 49 53 55 52 51 52 51 50 48 47 49 51 50 48 46 44 41 38 38 39 39
17 22 17 23 29 22 21 26 25 26 23 23 25 26 37 39 33 37 34 39 44 48 51 54 55 53 50 50 49 49 51 50 48 46 45 45 43 40 39 37 36 35 34 34
17 17 17 21 17 19 26 24 27 25 21 20 22 25 29 35 31 31 37 40 44 48 53 56 55 52 49 47 44 43 42 40 41 41 40 40 40 39 39 38 37 37 36 35
17 22 22 25 25 27 27 24 29 33 20 7 21 29 29 27 28 27 35 41 45 49 53 54 50 47 45 38 37 41 37 35 36 40 38 35 34 33 31 28 23 21 21 20
19 24 28 22 20 27 25 27 30 26 18 13 18 17 28 21 27 33 38 41 45 49 53 49 47 46 40 35 39 35 31 31 35 36 35 35 33 28 23 19 16 14 13 12
20 21 24 20 24 29 30 30 23 20 16 13 16 26 21 26 29 34 36 41 45 49 51 48 43 40 35 36 33 29 26 30 31 31 32 34 33 29 23 18 15 15 13 11
26 20 13 24 29 26 27 22 20 16 13 11 18 25 28 30 32 36 39 42 46 46 47 42 43 34 29 31 28 27 24 27 30 30 29 30 33 31 28 24 20 19 15 11
24 18 14 24 25 24 27 23 20 11 12 14 17 21 26 30 34 38 40 43 44 41 44 41 40 28 28 24 24 21 23 26 28 30 28 28 31 32 27 26 23 19 19 17
21 19 15 21 23 24 25 24 14 9 14 18 20 23 27 32 35 38 40 42 44 44 40 34 31 24 21 21 19 21 24 26 27 29 28 27 28 31 33 29 28 26 23 23
18 18 17 19 22 19 14 20 9 7 14 19 21 25 28 32 34 36 39 42 43 41 38 30 26 21 17 18 18 21 25 24 24 25 27 27 27 26 28 32 31 29 28 27
12 15 17 19 14 15 15 14 9 12 13 17 22 25 29 31 33 35 38 42 42 41 35 25 22 18 15 16 19 21 23 22 21 22 25 25 26 27 26 27 30 33 32 31
17 17 17 16 12 14 10 7 10 14 15 19 25 28 32 33 32 32 35 37 37 35 30 22 18 14 13 15 18 19 21 18 18 21 23 23 24 25 27 25 25 26 29 31
21 17 16 10 11 15 8 7 11 16 19 20 24 28 33 36 35 34 36 39 38 32 25 18 15 10 10 13 16 17 16 16 18 20 20 22 22 24 25 27 28 29 29 30
17 13 12 9 11 6 7 7 13 17 21 22 26 29 34 37 37 37 39 39 36 29 25 17 11 7 7 11 13 14 13 16 17 19 18 21 23 24 23 24 25 26 28 29
13 12 8 6 6 14 1 6 13 17 20 24 28 32 34 37 36 35 38 37 33 29 24 17 8 4 5 10 12 12 12 15 17 17 18 19 20 21 24 25 25 25 26 27
24 12 8 7 9 9 10 12 17 21 22 27 30 32 31 32 35 37 38 35 33 29 22 12 5 1 4 10 11 11 13 13 15 14 17 18 19 21 23 25 26 27 28 28
13 7 11 5 4 5 10 13 19 21 23 27 31 32 30 31 33 36 37 36 35 27 13 3 2 3 4 9 10 10 12 11 12 13 17 19 19 21 23 24 25 26 27 28
8 2 6 6 5 5 11 15 18 21 26 30 30 32 31 31 32 35 36 35 29 18 9 4 6 4 4 8 8 10 11 10 13 13 13 15 18 20 21 23 24 24 25 25
6 7 5 7 7 10 15 18 20 23 26 27 30 31 32 29 30 32 32 28 21 15 10 6 6 5 5 7 7 9 8 8 12 10 12 14 18 19 20 21 21 21 22 22
5 3 5 7 10 13 16 16 20 24 25 29 30 31 28 27 27 29 29 23 17 11 8 6 5 5 5 5 6 8 6 7 9 9 9 13 15 17 17 17 17 18 19 20
4 4 6 10 13 14 17 21 24 24 26 26 28 29 26 26 26 27 26 20 14 8 6 5 4 4 4 4 6 6 5 6 6 6 9 12 13 15 13 13 14 15 16 17
6 7 10 12 15 19 21 22 22 24 26 27 27 25 25 23 23 25 24 21 13 7 3 4 3 4 4 3 5 4 5 5 4 6 9 12 12 13 11 10 11 13 13 14
Wind_Direction
85 184 30 22 311 348 320 320 315 322 322 323 329 330 101 17 354 350 321 347 335 338 328 324 329 315 325 317 309 308 305 304 305 304 302 305 288 294 295 292 290 284 280 279
358 357 292 216 286 336 298 287 292 306 334 319 322 316 317 316 333 320 346 6 344 337 331 330 326 320 318 317 314 313 308 305 303 306 306 303 300 294 290 286 283 282 281 280
309 303 275 306 286 262 274 306 315 310 319 312 317 309 302 317 329 336 342 2 348 340 335 334 331 326 320 318 317 313 311 308 309 309 308 308 307 302 296 288 281 278 279 280
300 313 312 298 278 284 283 302 309 321 320 315 305 308 307 315 314 318 337 348 341 340 338 335 332 326 324 321 318 315 315 313 310 307 309 311 309 307 303 292 282 279 278 278
233 256 264 268 253 280 277 300 319 316 320 313 307 306 305 308 312 292 342 342 338 339 335 333 332 329 328 320 317 315 316 315 314 314 313 312 310 306 304 301 296 289 285 282
250 260 282 284 274 274 297 310 322 314 318 295 301 307 303 310 347 359 346 340 338 334 332 329 330 327 324 322 326 326 322 320 316 315 314 312 310 309 306 304 301 297 293 288
237 271 288 316 288 272 304 318 317 315 317 295 295 298 298 306 323 339 336 336 329 329 329 331 330 330 329 331 330 328 330 327 324 322 321 318 315 309 303 300 297 293 289 283
284 282 287 312 313 312 316 325 329 324 330 320 297 290 299 317 329 322 330 329 329 331 331 330 330 328 326 327 326 327 328 333 334 335 333 332 327 322 319 317 317 313 306 295
288 275 289 312 317 313 319 311 328 324 325 284 300 304 316 334 330 331 336 331 330 333 331 330 330 329 330 330 331 336 345 350 350 348 347 347 345 340 335 332 327 322 326 331
293 292 278 282 290 292 310 319 323 315 304 268 311 318 325 342 337 335 336 330 332 333 330 333 337 335 330 336 341 345 353 355 354 355 358 357 358 2 360 358 2 11 9 10
302 297 264 266 279 295 302 314 328 312 296 299 296 311 326 334 334 335 336 330 335 339 332 337 339 331 337 341 348 355 356 358 2 2 4 7 10 10 16 21 22 23 22 19
294 295 298 281 294 301 312 321 319 290 298 305 314 323 331 335 335 337 333 332 337 336 336 338 338 338 340 348 356 2 359 359 2 8 13 15 19 24 27 29 29 31 34 39
296 299 294 292 297 302 299 303 308 300 310 318 330 331 337 334 336 334 332 331 337 338 336 336 339 338 346 357 1 357 355 355 2 9 14 19 20 27 34 37 40 43 45 49
300 298 302 293 302 300 287 309 297 301 315 326 331 331 333 336 335 334 329 334 338 335 336 336 339 339 349 357 357 355 355 2 8 14 20 26 29 30 39 44 46 50 54 59
303 305 313 310 313 297 281 278 306 321 329 335 332 334 329 333 334 336 333 336 336 334 333 330 336 336 347 351 357 357 2 9 12 18 20 23 25 34 42 45 51 54 58 64
323 317 311 305 314 270 272 336 331 327 333 338 331 330 330 335 337 335 331 334 332 334 333 325 332 333 343 351 358 4 8 17 20 20 22 28 33 40 46 48 53 58 61 64
317 313 303 284 277 294 264 281 307 318 336 336 329 328 331 333 337 335 334 334 337 335 332 323 328 325 343 360 9 12 21 30 24 23 29 41 47 51 54 56 60 62 65 68
306 305 297 261 291 247 271 313 307 322 331 332 330 331 333 334 338 337 336 336 336 337 328 326 319 313 346 5 11 13 26 24 25 30 43 53 52 57 59 63 64 66 70 74
308 301 284 217 225 257 180 320 311 322 331 329 334 336 338 334 336 336 337 337 334 333 323 318 302 296 0 11 18 23 29 26 37 45 51 53 51 58 63 65 68 72 76 80
301 268 199 228 276 304 345 334 329 328 333 329 334 335 339 333 336 337 337 339 335 329 320 308 278 224 37 20 28 35 29 26 41 48 40 48 59 65 70 73 73 75 77 79
310 287 145 178 318 313 312 316 321 322 326 328 332 336 338 337 336 338 341 345 342 342 336 317 172 137 59 30 45 40 25 34 49 48 45 60 67 75 77 78 81 83 83 83
88 338 227 345 347 324 318 316 318 323 328 332 335 336 337 339 340 342 348 350 353 5 25 78 128 119 57 36 54 39 32 52 56 35 58 76 83 82 86 89 90 89 87 86
285 353 311 308 321 323 321 327 328 331 332 332 336 337 337 341 345 348 353 356 4 28 47 81 118 84 60 43 55 36 46 63 42 54 71 87 93 97 97 95 93 92 89 86
20 352 335 328 321 329 320 325 327 330 336 337 340 342 342 346 349 351 357 358 4 25 49 104 108 60 45 50 57 45 58 52 48 72 90 103 107 105 101 100 99 93 91 89
16 359 329 313 324 331 328 329 332 336 334 339 341 345 347 348 352 355 2 0 8 30 86 101 98 51 29 35 43 54 56 38 64 94 116 117 117 112 110 110 105 100 97 93
359 333 324 332 330 329 328 330 330 331 335 335 342 343 349 355 356 357 4 5 6 4 32 111 87 55 39 25 32 72 39 41 69 116 137 141 136 127 124 123 119 113 106 103
Height
5909 5910 5909 5907 5910 5908 5902 5900 5898 5895 5893 5885 5876 5873 5840 5844 5861 5866 5864 5861 5858 5854 5850 5846 5839 5836 5832 5828 5821 5817 5812 5805 5797 5791 5786 5782 5776 5771 5769 5766 5763 5760 5757 5756
5909 5909 5911 5909 5910 5909 5906 5903 5900 5899 5896 5884 5884 5877 5866 5858 5861 5853 5852 5852 5853 5850 5846 5841 5836 5830 5826 5820 5815 5809 5802 5794 5787 5782 5776 5769 5763 5757 5753 5749 5747 5743 5741 5738
5910 5910 5909 5909 5908 5907 5903 5901 5900 5898 5897 5885 5881 5876 5868 5867 5861 5853 5847 5848 5846 5843 5840 5834 5826 5820 5815 5808 5802 5795 5787 5780 5776 5769 5761 5754 5748 5741 5736 5731 5729 5727 5724 5722
5908 5906 5907 5907 5902 5901 5900 5898 5895 5894 5890 5886 5882 5876 5865 5863 5859 5854 5844 5841 5838 5832 5829 5824 5817 5811 5803 5797 5790 5784 5778 5769 5762 5755 5748 5742 5734 5728 5722 5718 5714 5710 5707 5705
5908 5904 5903 5900 5899 5898 5895 5893 5893 5889 5885 5880 5875 5871 5862 5860 5858 5851 5842 5838 5833 5828 5824 5817 5807 5802 5795 5787 5780 5777 5767 5758 5750 5744 5735 5729 5722 5715 5709 5704 5699 5695 5694 5692
5903 5902 5902 5900 5897 5893 5892 5888 5886 5884 5881 5874 5870 5866 5858 5856 5848 5842 5841 5836 5829 5824 5818 5811 5804 5797 5789 5780 5771 5764 5755 5748 5741 5734 5727 5719 5711 5704 5698 5692 5688 5684 5682 5680
5899 5899 5898 5895 5893 5891 5886 5883 5878 5879 5876 5870 5866 5863 5859 5856 5851 5845 5840 5835 5830 5823 5815 5806 5797 5788 5780 5775 5767 5758 5750 5742 5735 5726 5718 5710 5701 5694 5687 5682 5677 5673 5670 5668
5896 5894 5893 5890 5887 5883 5879 5878 5876 5869 5869 5867 5861 5857 5856 5853 5849 5845 5839 5833 5826 5819 5812 5801 5793 5785 5778 5772 5764 5756 5748 5739 5730 5720 5710 5701 5692 5684 5677 5672 5668 5664 5660 5657
5895 5892 5887 5886 5881 5879 5878 5876 5874 5867 5866 5861 5857 5855 5854 5851 5845 5842 5834 5828 5821 5815 5806 5797 5789 5780 5773 5766 5758 5750 5743 5735 5726 5717 5708 5698 5689 5680 5673 5668 5664 5660 5656 5653
5891 5890 5887 5883 5879 5876 5874 5871 5869 5866 5861 5857 5853 5851 5850 5846 5843 5836 5832 5824 5817 5811 5800 5792 5785 5776 5767 5762 5755 5748 5741 5734 5726 5717 5708 5699 5689 5680 5672 5667 5662 5658 5654 5651
5885 5885 5887 5879 5874 5874 5871 5869 5866 5862 5857 5855 5852 5849 5845 5842 5838 5834 5828 5820 5814 5805 5795 5788 5780 5771 5766 5759 5753 5747 5741 5734 5727 5718 5709 5701 5691 5682 5674 5668 5663 5659 5655 5652
5881 5880 5879 5871 5871 5869 5864 5863 5861 5858 5856 5853 5851 5848 5843 5840 5835 5830 5824 5817 5811 5802 5791 5783 5775 5769 5764 5759 5753 5747 5742 5735 5728 5720 5712 5704 5696 5687 5679 5672 5666 5662 5658 5654
5877 5875 5874 5868 5867 5865 5860 5859 5857 5856 5852 5851 5849 5846 5841 5837 5832 5826 5820 5813 5805 5796 5790 5783 5775 5769 5764 5758 5753 5748 5743 5736 5729 5722 5715 5708 5701 5693 5684 5677 5672 5667 5662 5659
5873 5870 5868 5866 5863 5860 5857 5855 5854 5854 5850 5848 5847 5843 5839 5834 5829 5823 5815 5808 5801 5793 5786 5779 5773 5768 5763 5758 5754 5749 5743 5737 5731 5725 5719 5713 5706 5699 5692 5685 5679 5674 5669 5665
5870 5866 5863 5860 5860 5857 5855 5853 5852 5851 5850 5848 5845 5841 5836 5833 5827 5820 5812 5803 5797 5789 5782 5776 5771 5767 5762 5758 5754 5749 5744 5738 5733 5729 5723 5717 5711 5705 5698 5694 5688 5683 5679 5675
5865 5862 5859 5857 5857 5852 5852 5852 5851 5850 5849 5846 5842 5837 5833 5829 5824 5818 5810 5803 5794 5786 5779 5773 5769 5766 5762 5759 5754 5750 5745 5740 5736 5732 5727 5722 5716 5710 5705 5700 5696 5692 5689 5685
5858 5856 5855 5854 5853 5851 5854 5851 5851 5848 5847 5845 5840 5835 5830 5824 5819 5812 5805 5796 5789 5781 5776 5770 5766 5764 5761 5759 5755 5751 5747 5743 5739 5735 5730 5726 5721 5716 5712 5708 5704 5700 5697 5694
5853 5852 5851 5850 5849 5849 5849 5850 5847 5846 5845 5841 5837 5832 5826 5819 5813 5806 5798 5791 5783 5777 5771 5767 5764 5763 5761 5758 5755 5752 5749 5746 5742 5738 5734 5730 5726 5722 5719 5715 5712 5709 5706 5703
5850 5849 5849 5848 5848 5844 5847 5849 5847 5844 5843 5838 5834 5828 5821 5814 5809 5803 5795 5786 5777 5772 5768 5764 5762 5761 5760 5758 5755 5753 5751 5748 5745 5741 5738 5734 5731 5728 5724 5721 5719 5717 5714 5711
5845 5845 5846 5847 5847 5845 5846 5845 5843 5841 5839 5834 5831 5825 5820 5812 5805 5799 5790 5781 5773 5767 5762 5760 5760 5760 5760 5758 5756 5755 5753 5750 5748 5745 5742 5738 5735 5733 5730 5727 5725 5723 5722 5721
5845 5842 5839 5845 5848 5848 5846 5845 5842 5840 5839 5833 5828 5822 5817 5811 5804 5796 5786 5776 5767 5760 5757 5757 5758 5760 5760 5759 5757 5756 5755 5753 5750 5748 5745 5742 5740 5738 5736 5734 5732 5730 5729 5728
5843 5842 5843 5846 5847 5847 5844 5843 5841 5838 5833 5829 5824 5819 5813 5808 5800 5792 5782 5774 5767 5761 5758 5758 5760 5761 5761 5760 5759 5758 5756 5755 5753 5751 5749 5747 5744 5743 5742 5740 5739 5738 5737 5736
5844 5844 5844 5846 5846 5844 5842 5840 5837 5834 5831 5827 5822 5816 5810 5804 5798 5790 5782 5775 5769 5764 5762 5761 5762 5762 5762 5761 5761 5760 5758 5757 5755 5754 5752 5751 5749 5748 5748 5747 5746 5745 5744 5743
5843 5843 5843 5845 5843 5842 5840 5839 5836 5832 5828 5823 5819 5814 5808 5802 5796 5790 5782 5775 5771 5767 5765 5764 5765 5764 5764 5763 5762 5761 5760 5759 5757 5756 5755 5754 5754 5753 5753 5752 5751 5750 5749 5749
5843 5844 5844 5843 5842 5840 5838 5835 5831 5828 5825 5822 5817 5811 5807 5801 5795 5789 5782 5777 5773 5770 5767 5767 5766 5766 5765 5765 5764 5762 5762 5760 5759 5758 5758 5758 5758 5757 5757 5756 5756 5755 5754 5754
5844 5845 5845 5842 5839 5837 5835 5831 5829 5826 5822 5818 5815 5809 5805 5800 5795 5790 5784 5778 5774 5771 5769 5768 5767 5766 5766 5766 5765 5764 5763 5761 5760 5760 5760 5759 5760 5759 5760 5760 5759 5758 5758 5758